Regional Weather Roundup
Issued by NWS

Home | Current Version | Previous Version | Graphics & Text | Print | Product List | Glossary On
Versions: 1 2 3 4 5 6 7 8 9 10 11 12 13 14 15 16 17 18 19 20 21 22 23 24 25 26 27 28 29 30 31 32 33 34 35 36 37 38 39 40 41 42 43 44 45 46 47 48 49 50
000
ASUS43 KMPX 181401
RWRMN
WEATHER ROUNDUP FOR MINNESOTA
NATIONAL WEATHER SERVICE TWIN CITIES/CHANHASSEN MN
800 AM CST THU DEC 18 2014


NOTE: "FAIR" INDICATES FEW OR NO CLOUDS BELOW 12,000 FEET WITH NO
SIGNIFICANT WEATHER AND/OR OBSTRUCTIONS TO VISIBILITY. N/A MEANS
CURRENT SKY AND/OR WEATHER CONDITIONS ARE NOT AVAILABLE.

MNZ060>063-068>070-181500-
   Twin Cities Metro

CITY           SKY/WX    TMP DP  RH WIND       PRES   REMARKS
TWIN CITIES    FLURRIES  16  12  84 CALM      30.30S
ST PAUL        CLOUDY    20  15  81 CALM      30.32R
CRYSTAL        CLOUDY    17  12  80 CALM      30.29S
BLAINE         CLOUDY    19  18  93 CALM      30.29S
LAKEVILLE      CLOUDY    10   9  92 CALM      30.30R
EDEN PRAIRIE   CLOUDY    11   7  84 CALM      30.30R
SOUTH ST PAUL  CLOUDY    19  15  84 CALM      30.30S
LAKE ELMO      CLOUDY    19  18  93 CALM      30.30S
$$
MNZ001>005-007-008-013>017-022>024-027-028-181500-
   Northwest Minnesota

CITY           SKY/WX    TMP DP  RH WIND       PRES   REMARKS
BEMIDJI        PTCLDY     5   3  88 SE3       30.25S
HALLOCK        PTCLDY     5   1  85 S5        30.25S WCI  -4
ROSEAU         CLEAR      7   1  78 CALM      30.25S
WARROAD        PTCLDY     3   1  92 E3        30.26S
THIEF RVR FALL PTCLDY     9   5  85 SE7       30.24F WCI  -3
CROOKSTON      PTCLDY     7   3  85 SE5       30.26F WCI  -2
FOSSTON        MOCLDY     5   1  85 CALM      30.24S
DETROIT LAKES  PTCLDY    10   9  92 S5        30.24R WCI   2
MOORHEAD       MOCLDY    10   9  92 SE3       30.25F
PARK RAPIDS    PTCLDY     6   2  83 E3        30.23F
MAHNOMEN       FAIR       9   5  86 SE7       30.23F WCI  -3
$$
MNZ006-009>011-018-025>026-181500-
   North Central Minnesota

CITY           SKY/WX    TMP DP  RH WIND       PRES   REMARKS
BAUDETTE       MOCLDY     4   0  83 SE3       30.27S
FLAG ISLAND    MOCLDY     7   3  85 SE6       30.26F WCI  -3
INTL FALLS     MOCLDY    -1  -5  82 E3        30.29S
WASKISH        MOCLDY     1   0  92 CALM      30.27S
BIG FORK       MOCLDY    -2  -8  78 CALM      30.28S
LONGVILLE      FLURRIES   1   0  92 CALM      30.27F
GRAND RAPIDS   CLOUDY     9   5  85 CALM      30.26F
CRANE LAKE     CLOUDY     7   3  85 CALM      30.33S
ORR            FLURRIES  12  10  92 CALM      30.26S
COOK           FLURRIES  12  10  92 CALM      30.29R
WALKER         FAIR       2  -1  87 CALM      30.26S
$$
MNZ012-019>021-037-181500-
   Northeast Minnesota

CITY           SKY/WX    TMP DP  RH WIND       PRES   REMARKS
DULUTH         FLURRIES  19  15  84 N5        30.26S WCI  12
ELY            CLOUDY     9   7  92 CALM      30.29R
HIBBING        FLURRIES  16  11  80 CALM      30.28S
EVELETH        CLOUDY    16  12  86 CALM      30.29R
DULUTH HARBOR  CLOUDY    23  19  86 CALM      30.32S
SILVER BAY     CLOUDY    23  19  86 NE3       30.28S
GRAND MARAIS     N/A      9   1  70 N7        30.36F WCI  -2
G MARAIS ARPRT MOCLDY    -8 -15  71 N6        30.26F WCI -21
$$
MNZ029>031-032-039>041-046>048-054>057-064-181500-
   West Central Minnesota

CITY           SKY/WX    TMP DP  RH WIND       PRES   REMARKS
FERGUS FALLS   MOCLDY     9   5  85 SE6       30.28S WCI  -1
WHEATON        CLOUDY     7   3  85 CALM      30.27S
MORRIS         MOCLDY     5   1  85 SE6       30.25S WCI  -6
ALEXANDRIA     PTCLDY     9   6  88 SE5       30.24S WCI   1
ELBOW LAKE     FAIR       8   5  89 SE6       30.25R WCI  -2
WADENA         MOCLDY     1  -2  85 CALM      30.24S
GLENWOOD       PTCLDY     7   5  92 SE5       30.25S WCI  -2
APPLETON       MOCLDY     9   5  85 CALM      30.27S
BENSON         PTCLDY    10   7  85 CALM      30.27R
ORTONVILLE     CLOUDY     9   7  92 SE3       30.26R
MADISON        CLOUDY    14  12  92 CALM      30.27S
WILLMAR        FAIR      12   9  85 SE5       30.28R WCI   4
$$
MNZ033>034-036-042>043-049>051-058-059-181500-
   Central Minnesota

CITY           SKY/WX    TMP DP  RH WIND       PRES   REMARKS
ST CLOUD       CLOUDY    12   7  80 CALM      30.28S
SAUK CENTRE    FAIR       4   2  89 E5        30.27S WCI  -5
PAYNESVILLE    PTCLDY     5   3  94 CALM      30.28S
AITKIN         MIX PCPN  14   9  79 CALM      30.26S
PINE RIVER     MOCLDY     1   0  92 CALM      30.29S
BRAINERD       CLOUDY     7   4  87 CALM      30.27S
STAPLES        PTCLDY     3   1  92 E3        30.25F
LONG PRAIRIE   FAIR       5   3  92 NW3       30.26S
LITTLE FALLS   CLOUDY     5   1  85 CALM      30.28F
LITCHFIELD     PTCLDY    10   9  92 CALM      30.28S
BUFFALO        MOCLDY    11   8  89 CALM      30.31R
MAPLE LAKE     MOCLDY    10   8  94 CALM      30.30R
$$
MNZ037-044-045-052-053-181500-
   East Central Minnesota

CITY           SKY/WX    TMP DP  RH WIND       PRES   REMARKS
PRINCETON      CLOUDY    18  16  93 CALM      30.28S
MORA           CLOUDY    18  14  86 CALM      30.30F
CAMBRIDGE      FLURRIES  19  12  73 CALM      30.27F
RUSH CITY      CLOUDY    19  17  90 CALM      30.29F
MOOSE LAKE     CLOUDY    19  16  86 CALM      30.27S
HINCKLEY       CLOUDY    19  18  93 CALM      30.29S
CLOQUET        CLOUDY    18  16  93 NW3       30.27S
MCGREGOR       CLOUDY    18  14  86 CALM      30.28F
$$
MNZ071>073-080-081-089-090-097-098-181500-
   Southwest Minnesota

CITY           SKY/WX    TMP DP  RH WIND       PRES   REMARKS
MONTEVIDEO     PTCLDY     9   7  92 CALM      30.29R
GRANITE FALLS  PTCLDY     5   3  89 CALM      30.30R
CANBY          CLOUDY    14  12  92 SE3       30.26S
MARSHALL       CLOUDY    10   7  85 CALM      30.26R
REDWOOD FALLS  PTCLDY     7   4  87 CALM      30.28S
OLIVIA         PTCLDY    12  10  92 SE3       30.28R FOG
PIPESTONE      CLOUDY    16  14  93 CALM      30.20S
WINDOM         MOCLDY    14  12  92 CALM      30.25S
WORTHINGTON    CLOUDY    16  12  86 SE6       30.24S WCI   7
JACKSON        CLOUDY    18  14  86 SE6       30.25S WCI   9
TRACY          CLOUDY    15  13  92 CALM      30.25S
SLAYTON        CLOUDY    15  14  97 CALM      30.23S
$$
MNZ065>067-074>077-082>085-091>093-181500-
   South Central Minnesota

CITY           SKY/WX    TMP DP  RH WIND       PRES   REMARKS
MANKATO        MOCLDY    12   7  79 CALM      30.29S
NEW ULM        MOCLDY    14  12  92 CALM      30.28F
ST JAMES       CLOUDY    16  12  86 CALM      30.30R
FAIRMONT       CLOUDY    16  10  79 CALM      30.27S
GLENCOE        PTCLDY    11   9  92 CALM      30.29S
FARIBAULT      CLOUDY    10   9  92 CALM      30.29S
OWATONNA       MOCLDY    12   9  85 CALM      30.28S
WASECA         MOCLDY    12  10  92 E3        30.30R
ALBERT LEA     CLOUDY    16  12  86 CALM      30.27S
$$
MNZ078>079-086>088-094>096-181500-
   Southeast Minnesota

CITY           SKY/WX    TMP DP  RH WIND       PRES   REMARKS
ROCHESTER      CLOUDY    15  11  83 CALM      30.27S
RED WING       CLOUDY    18  14  86 W3        30.30S
STANTON        LGT SNOW  13  10  87 CALM      30.29S
DODGE CENTER   CLOUDY    14  10  85 CALM      30.27R
WINONA         CLOUDY    21  18  86 CALM      30.32R
AUSTIN         CLOUDY    16  12  86 CALM      30.27S
PRESTON        CLOUDY    13  11  89 CALM      30.27S
$$
ABBREVIATIONS USED IN REMARKS
   TC - TEMPERATURES IN CELSIUS
  WCI - WIND CHILL INDEX
   HX - HEAT INDEX
  VSB - VISIBILITY
$$


USA.gov is the U.S. government's official web portal to all federal, state and local government web resources and services.